     2              OBSERVATION DATA    GPS                 RINEX VERSION / TYPE
teqc 1999Jul19 19991123 03:14:30UTC                         PGM / RUN BY / DATE
                                                            COMMENT
Original Marker Name: 0484                                  COMMENT
Campaign Name: HPGN 1991                                    COMMENT
4-Character Station Name: 1012                              COMMENT
6-Character Antenna Code: TRMSST                            COMMENT
Vertical Measurement Point: BPA                             COMMENT
Vertical Offset to Rinex Ref. Point: 0.0000                 COMMENT
Radial Measurement Point: RRP                               COMMENT
Radial Offset to Rinex Ref. Point: 0.0000                   COMMENT
Antenna Height from Field Measurement: 2.2200 m             COMMENT
                                                            COMMENT
Original XYZ: 0.0000 0.0000 0.0000                          COMMENT
New XYZ position is based on association with SCEC monument COMMENT
E1F9S6F1+0011. Position of that monument is believed to be  COMMENT
valid to within 1 m horizontally; vertical accuracy         COMMENT
should be no worse than 3-times this value.                 COMMENT
                                                            COMMENT
Revised Rinex header created by UCSD GPS archive for        COMMENT
GSAC on 10-Mar-2000 (2000:070) 17:32:02 GMT                 COMMENT
For assistance contact dagnew@ucsd.edu or hjohnson@ucsd.edu COMMENT
                                                            COMMENT
HPGN CA 10 12                                               MARKER NAME
0484                                                        MARKER NUMBER
-Unknown- CALIF DEPT TRANSPORTATION                         OBSERVER / AGENCY
484 TRIMBLE 4000 SST NP 4.30 / SP 4.20                      REC # / TYPE / VERS
18 TR 4000SST L1/L2 GEO                                     ANT # / TYPE
 -2508640.9679 -4314311.2082  3962053.0658                  APPROX POSITION XYZ
        2.2200        0.0000        0.0000                  ANTENNA: DELTA H/E/N
     1     1     0                                          WAVELENGTH FACT L1/2
     5    C1    L1    L2    S1    S2                        # / TYPES OF OBSERV
     0                                                      INTERVAL
  1991     5    29    17    24   30.000000                  TIME OF FIRST OBS
  1991     5    29    17    47   60.000000                  TIME OF LAST OBS
                                                            END OF HEADER
 91  5 29 17 24 30.0000000  0  4G19G 2G16G18
  20647295.375          -0.70717        -0.37732        23.250           2.000
  24053878.797          -0.08515        -0.13631        11.500           0.625
  24235415.547          -0.53515        -0.15031         9.250           0.281
  20700936.430          -0.15618                        28.000
 91  5 29 17 25  0.0000000  0  4G19G 2G16G18
  20642157.383      -26999.634 7    -21038.50122        23.000           2.000
  24030793.266     -121285.337 5    -94507.89621        10.750           0.563
  24218845.891      -87067.981 5    -67844.89121         8.250           0.281
  20705045.102       21584.329 8                        28.250
 91  5 29 17 25 15.0000000  0  4G19G 2G16G18
  20639611.461      -40395.222 7    -31476.62022        22.250           2.000
  24019267.109     -181853.921 5   -141704.08721        11.500           0.688
  24210598.086     -130418.343 5   -101624.35621         8.750           0.219
  20707132.625       32559.085 8        -0.14433        28.500           2.750
 91  5 29 17 25 30.0000000  0  4G19G 2G16G18
  20637073.719      -53725.455 7    -41863.81022        23.250           1.906
  24007747.945     -242376.502 5   -188864.43621        10.250           0.531
  24202370.531     -173650.072 5   -135311.38121         8.750           0.188
  20709243.992       43651.430 8      8643.22823        28.500           2.656
 91  5 29 17 25 45.0000000  0  4G19G 2G16G18
  20634543.891      -67036.684 7    -52236.20022        22.500           2.031
  23996234.516     -302899.331 5   -236024.96621        10.250           0.500
  24194160.953     -216809.065 5   -168941.73221         8.750           0.219
  20711368.273       54815.055 8     17342.13423        28.750           2.688
 91  5 29 17 26  0.0000000  0  4G19G 2G16G18
  20632022.070      -80266.341 7    -62545.02322        23.000           2.063
  23984729.227     -363359.629 5   -283136.78521        10.500           0.531
  24185971.609     -259832.453 5   -202466.42821         8.500           0.375
  20713519.039       66112.515 8     26145.33323        28.500           2.688
 91  5 29 17 26 15.0000000  0  4G19G 2G16G18
  20629519.234      -93428.618 7    -72801.34322        22.250           1.969
  23973231.539     -423771.390 5   -330210.79821        11.000           0.656
  24177811.055     -302734.179 5   -235896.29421         9.500           0.281
  20715692.039       77529.545 8     35041.70123        29.000           2.875
 91  5 29 17 26 30.0000000  0  4G19G 2G16G18
  20627024.773     -106524.431 7    -83005.87122        22.500           1.906
  23961747.680     -484135.540 5   -377247.70521        10.750           0.531
  24169663.516     -345515.122 5   -269232.08421         8.250           0.250
  20717886.914       89065.157 8     44030.47023        28.500           2.781
 91  5 29 17 26 45.0000000  0  5G19G11G 2G16G18
  20624550.625     -119547.296 7    -93153.56222        22.750           1.938
  23968634.359      -46973.360 6                        12.500
  23950269.461     -544445.182 5   -424242.13121        11.000           0.625
  24161551.891     -388168.425 5   -302468.37821         8.750           0.281
  20720105.313      100725.830 8     53116.68723        29.000           2.750
 91  5 29 17 27  0.0000000  0  5G19G11G 2G16G18
  20622082.164     -132504.627 7   -103250.18222        22.500           1.969
  23959715.039      -93852.771 6                        14.000
  23938801.383     -604707.512 5   -471199.69221         9.500           0.531
  24153460.023     -430701.072 5   -335610.69021         8.750           0.219
  20722346.953      112504.287 8     62294.69123        29.000           2.719
 91  5 29 17 27 15.0000000  0  5G19G11G 2G16G18
  20619629.789     -145397.114 7   -113296.27822        22.000           2.031
  23950809.523     -140638.463 6        -0.36131        13.750           0.688
  23927345.750     -664922.913 5   -518120.65721        10.750           0.688
  24145383.539     -473113.532 5   -368659.32921         8.500           0.281
  20724609.883      124399.686 8     71563.81223        28.750           2.750
 91  5 29 17 27 30.0000000  0  5G19G11G 2G16G18
  20617179.648     -158263.611 7   -123322.12122        22.500           1.969
  23941918.172     -187368.906 6    -36413.62821        14.000           0.719
  23915882.805     -725129.915 5   -565035.13921        10.500           0.531
  24137329.828     -515444.477 5   -401644.44121         8.750           0.188
  20726888.805      136372.927 8     80893.58323        29.000           2.781
 91  5 29 17 27 45.0000000  0  5G19G11G 2G16G18
  20614747.141     -171059.452 7   -133292.90522        21.750           2.094
  23933042.055     -233998.944 6    -72748.69721        13.750           0.594
  23904438.125     -785283.753 5   -611908.15721        10.750           0.531
  24129295.625     -557648.932 5   -434530.99821         8.250           0.375
  20729190.398      148469.067 8     90319.13523        29.250           2.875
 91  5 29 17 28  0.0000000  0  5G19G11G 2G16G18
  20612325.672     -183765.507 7   -143193.72622        22.500           1.969
  23924192.055     -280509.121 6   -108990.34321        13.250           0.656
  23893006.484     -845365.085 5   -658724.66921        11.000           0.688
  24121295.133     -599707.218 5   -467303.66821         9.500           0.313
  20731518.609      160707.084 8     99855.23623        28.750           2.719
 91  5 29 17 28 15.0000000  0  5G19G11G 2G16G18
  20609926.719     -196390.369 7   -153031.28222        22.000           1.906
  23915361.641     -326907.677 6   -145144.97221        13.250           0.719
  23881584.172     -905382.330 5   -705491.26921        11.250           0.625
  24113321.656     -641628.145 5   -499969.30821        10.000           0.375
  20733873.664      173078.088 8    109494.95423        28.500           2.750
 91  5 29 17 28 30.0000000  0  5G19G11G 2G16G18
  20607531.086     -208971.174 7   -162834.50722        22.000           2.000
  23906548.547     -373231.419 6   -181241.36121        13.750           0.594
  23870173.250     -965372.674 5   -752236.89121        11.500           0.625
  24105356.547     -683448.459 5   -532556.55621         8.500           0.344
  20736246.344      185545.040 8    119209.44923        28.250           2.719
 91  5 29 17 28 45.0000000  0  5G19G11G 2G16G18
  20605148.109     -221493.498 7   -172592.16222        21.500           1.875
  23897752.320     -419465.545 6   -217267.88221        15.500           0.625
  23858763.492    -1025321.357 5   -798950.04721        11.250           0.656
  24097425.883     -725153.498 5   -565053.94321         8.750           0.188
  20738640.797      198122.588 8    129010.11423        28.500           2.563
 91  5 29 17 29  0.0000000  0  5G19G11G 2G16G18
  20602775.000     -233968.396 7   -182312.86822        22.750           1.969
  23888966.828     -465620.449 6   -253232.71221        13.750           0.625
  23847361.445    -1085239.033 5   -845639.04621        11.500           0.563
  24089507.055     -766754.035 5   -597469.94921         8.500           0.313
  20741052.367      210799.323 8    138888.07423        28.000           2.656
 91  5 29 17 29 15.0000000  0  5G19G11G 2G16G18
  20600410.648     -246397.008 7   -191997.49622        22.250           1.844
  23880198.836     -511696.948 6   -289136.40721        14.500           0.656
  23835961.250    -1145126.664 5   -892304.64521        11.000           0.563
  24081609.664     -808250.820 5   -629805.07621         8.250           0.281
  20743482.766      223574.112 8    148842.43423        28.250           2.625
 91  5 29 17 29 30.0000000  0  5G19G11G 2G16G18
  20598061.094     -258753.526 7   -201625.95522        22.250           1.938
  23871452.320     -557668.819 6   -324958.61921        13.750           0.500
  23824578.867    -1204958.247 5   -938926.56721        11.750           0.625
  24073734.586     -849617.629 5   -662038.93321         9.000           0.313
  20745937.484      236472.832 8    158893.37223        28.000           2.625
 91  5 29 17 29 45.0000000  0  5G19G11G 2G16G18
  20595722.992     -271031.292 7   -211193.04422        21.750           1.875
  23862727.156     -603529.142 6   -360693.87921        14.500           0.625
  23813204.141    -1264726.936 5   -985499.47521        11.500           0.531
  24065895.773     -890847.937 5   -694166.42421         9.500           0.188
  20748415.797      249501.865 7    169045.84623        27.500           2.531
 91  5 29 17 30  0.0000000  0  5G19G11G 2G16G18
  20593393.969     -283260.926 7   -220722.63022        22.750           1.844
  23854017.328     -649307.949 6   -396365.60721        15.000           0.500
  23801838.844    -1324463.113 6  -1032047.06421        12.000           0.531
  24058069.570     -931971.894 5   -726211.05721         9.500           0.188
  20750914.078      262630.737 7    179276.11723        27.500           2.531
 91  5 29 17 30 15.0000000  0  5G19G11G 2G16G18
  20591080.781     -295435.880 7   -230209.60122        22.250           1.906
  23845318.961     -694998.272 6   -431968.41521        15.000           0.563
  23790473.297    -1384160.006 5  -1078564.04021        11.250           0.719
  24050264.125     -972982.915 5   -758167.67521        10.000           0.281
  20753433.680      275865.706 7    189589.05923        27.750           2.531
 91  5 29 17 30 30.0000000  0  5G19G11G 2G16G18
  20588771.922     -307542.038 7   -239642.97422        22.000           1.875
  23836645.523     -740585.648 6   -467490.99621        15.750           0.531
  23779128.141    -1443803.422 6  -1125039.31021        12.000           0.625
  24042484.023    -1013866.467 5   -790024.98621        11.000           0.313
  20755974.906      289220.995 7    199995.75723        27.750           2.594
 91  5 29 17 30 45.0000000  0  5G19G11G 2G16G18
  20586482.625     -319594.304 7   -249034.35422        21.750           1.781
  23827985.773     -786084.593 6   -502944.69721        14.750           0.563
  23767785.016    -1503408.076 6  -1171484.40921        12.000           0.563
  24034727.734    -1054637.159 5   -821794.35221        10.750           0.281
  20758536.359      302681.893 7    210484.74623        27.750           2.500
 91  5 29 17 31  0.0000000  0  5G19G11G 2G16G18
  20584194.945     -331597.168 7   -258387.23622        22.750           1.875
  23819344.578     -831499.092 6   -538332.55921        15.000           0.625
  23756449.359    -1562977.840 6  -1217902.31721        12.250           0.500
  24026983.656    -1095298.947 5   -853478.87221         9.750           0.219
  20761116.828      316243.730 7    221052.38723        27.500           2.531
 91  5 29 17 31 15.0000000  0  5G19G11G 2G16G18
  20581921.133     -343567.185 7   -267714.52322        22.250           1.750
  23810717.813     -876845.374 6   -573667.27721        14.250           0.438
  23745114.078    -1622529.408 5  -1264306.07521        11.500           0.531
  24019267.164    -1135868.548 5   -885091.51721        10.000           0.219
  20763713.719      329889.994 7    231685.81923        27.750           2.625
 91  5 29 17 31 30.0000000  0  5G19G11G 2G16G18
  20579650.648     -355477.740 7   -276995.47222        23.750           1.781
  23802103.109     -922096.444 6   -608927.81021        13.750           0.563
  23733795.047    -1682036.160 5  -1310674.88121        11.750           0.531
  24011569.656    -1176319.016 5   -916611.37421         9.250           0.250
  20766331.992      343647.097 7    242405.62023        27.750           2.531
 91  5 29 17 31 45.0000000  0  5G19G11G 2G16G18
  20577399.898     -367325.095 7   -286227.17822        22.000           1.688
  23793512.227     -967248.033 6   -644110.79721        14.750           0.563
  23722477.180    -1741493.831 5  -1357005.43721        11.750           0.594
  24003900.406    -1216646.325 5   -948035.19821        10.250           0.250
  20768972.156      357518.847 8    253214.75823        28.000           2.719
 91  5 29 17 32  0.0000000  0  5G19G11G 2G16G18
  20575157.992     -379100.766 7   -295403.03022        22.500           1.719
  23784935.125    -1012291.332 6   -679209.42121        14.000           0.531
  23711174.961    -1800893.842 6  -1403291.07721        12.250           0.375
  23996246.836    -1256841.817 5   -979356.38121        10.250           0.250
  20771635.383      371513.440 7    264119.60823        27.750           2.688
 91  5 29 17 32 15.0000000  0  5G19G11G 2G16G18
  20572926.102     -390833.608 7   -304545.50522        22.250           1.750
  23776378.695    -1057254.777 6   -714245.85921        14.250           0.469
  23699875.984    -1860264.755 6  -1449554.04321        12.250           0.563
  23988616.492    -1296934.229 5  -1010597.19521        10.000           0.281
  20774315.320      385602.157 7    275097.80823        27.250           2.625
 91  5 29 17 32 30.0000000  0  5G19G11G 2G16G18
  20570704.148     -402491.055 7   -313629.23322        22.750           1.688
  23767847.984    -1102105.364 6   -749194.31121        14.250           0.625
  23688591.227    -1919573.729 6  -1495768.75621        12.000           0.563
  23981016.078    -1336890.601 5  -1041732.02021         9.500           0.281
  20777020.047      399817.478 7    286174.66123        27.500           2.719
 91  5 29 17 32 45.0000000  0  5G19G11G 2G16G18
  20568502.125     -414083.086 7   -322661.98522        22.000           1.719
  23759333.609    -1146852.728 6   -784062.30621        16.250           0.531
  23677313.938    -1978830.747 6  -1541942.93821        12.250           0.469
  23973436.242    -1376720.291 5  -1072768.15721         9.500           0.313
  20779747.500      414149.199 7    297342.21323        27.250           2.688
 91  5 29 17 33  0.0000000  0  5G19G11G 2G16G18
  20566309.211     -425606.811 7   -331641.51322        22.000           1.781
  23750837.023    -1191493.507 6   -818847.33121        14.250           0.500
  23666046.727    -2038032.484 6  -1588074.10521        12.750           0.469
  23965880.664    -1416420.394 5  -1103703.24821        10.000           0.313
  20782498.453      428600.242 7    308602.74423        27.750           2.719
 91  5 29 17 33 15.0000000  0  5G19G11G 2G16G18
  20564133.906     -437033.770 7   -340545.63922        22.250           1.719
  23742368.945    -1235998.846 6   -853526.74021        14.750           0.719
  23654796.648    -2097150.300 6  -1634139.85821        12.500           0.563
  23958355.492    -1455962.466 5  -1134515.25721         9.250           0.313
  20785274.859      443199.026 7    319978.39823        27.250           2.813
 91  5 29 17 33 30.0000000  0  5G19G11G 2G16G18
  20561967.078     -448406.550 7   -349407.54522        22.750           1.750
  23733917.391    -1280410.996 6   -888133.56421        15.250           0.594
  23643555.688    -2156226.738 5  -1680173.35221        11.250           0.500
  23950855.953    -1495389.009 5  -1165237.21321        10.250           0.281
  20788072.719      457902.670 7    331435.76223        27.250           2.781
 91  5 29 17 33 45.0000000  0  5G19G11G 2G16G18
  20559820.023     -459696.146 7   -358204.63322        21.750           1.750
  23725488.789    -1324700.579 6   -922644.86821        14.500           0.719
  23632327.195    -2215232.668 6  -1726151.89921        13.000           0.563
  23943376.453    -1534670.449 5  -1195846.12321         9.000           0.219
  20790898.773      472740.538 7    342997.71223        27.750           2.813
 91  5 29 17 34  0.0000000  0  5G19G11G 2G16G18
  20557681.938     -470942.552 7   -366968.07022        21.750           1.906
  23717078.984    -1368907.208 6   -957091.52521        15.750           0.750
  23621107.523    -2274207.748 6  -1772106.43421        13.500           0.625
  23935925.500    -1573846.733 5  -1226373.07421         9.750           0.250
  20793738.539      487672.512 7    354632.99523        27.000           2.781
 91  5 29 17 34 15.0000000  0  5G19G11G 2G16G18
  20555552.875     -482127.939 7   -375683.95522        22.000           1.844
  23708681.406    -1413012.680 6   -991459.38421        13.750           0.656
  23609895.398    -2333133.970 6  -1818022.88621        14.000           0.500
  23928492.695    -1612899.658 5  -1256803.92921        10.000           0.344
  20796601.625      502716.237 7    366355.35323        27.000           2.813
 91  5 29 17 34 30.0000000  0  5G19G11G 2G16G18
  20553431.805     -493253.825 7   -384353.48022        22.250           1.656
  23700310.281    -1457018.041 6  -1025749.22521        14.750           0.750
  23598689.828    -2392012.718 6  -1863902.38221        13.750           0.594
  23921084.875    -1651830.460 5  -1287139.60921         9.750           0.219
  20799485.695      517870.249 7    378163.65023        27.250           2.750
 91  5 29 17 34 45.0000000  0  5G19G11G 2G16G18
  20551329.313     -504319.664 7   -392976.21022        21.750           1.938
  23691956.055    -1500922.274 6  -1059960.27621        14.500           0.656
  23587492.711    -2450843.022 6  -1909744.08821        13.000           0.563
  23913698.414    -1690638.242 5  -1317379.43921         9.250           0.250
  20802391.422      533134.983 7    390058.22923        27.500           2.719
 91  5 29 17 35  0.0000000  0  5G19G11G 2G16G18
  20549237.297     -515318.660 7   -401546.86122        22.500           1.813
  23683618.547    -1544718.266 6  -1094086.94421        14.500           0.656
  23576302.953    -2509618.037 6  -1955542.74721        12.250           0.563
  23906338.461    -1729316.004 5  -1347517.94421        10.000           0.375
  20805316.789      548517.097 7    402044.27123        27.000           2.750
 91  5 29 17 35 15.0000000  0  5G19G11G 2G16G18
  20547155.219     -526255.664 7   -410069.20622        22.000           1.844
  23675307.969    -1588410.587 6  -1128132.87821        14.750           0.594
  23565130.992    -2568342.423 6  -2001301.91021        12.500           0.563
  23899000.773    -1767868.460 5  -1377558.80721        10.000           0.344
  20808267.656      564011.666 8    414117.93423        28.000           2.688
 91  5 29 17 35 30.0000000  0  5G19G11G 2G16G18
  20545080.563     -537154.741 7   -418561.98822        22.250           1.844
  23667006.508    -1632022.945 6  -1162116.46721        13.750           0.719
  23553964.414    -2627040.085 6  -2047040.29021        13.500           0.531
  23891683.266    -1806319.686 5  -1407520.79921        10.250           0.344
  20811232.422      579594.418 7    426260.31823        27.500           2.750
 91  5 29 17 35 45.0000000  0  5G19G11G 2G16G18
  20543019.172     -547987.267 7   -427002.91422        21.000           1.844
  23658728.883    -1675526.098 6  -1196014.97721        15.250           0.625
  23542804.844    -2685682.196 6  -2092735.37121        13.750           0.594
  23884395.391    -1844640.561 5  -1437381.20421        10.000           0.438
  20814219.367      595294.088 7    438493.79623        27.500           2.719
 91  5 29 17 36  0.0000000  0  5G19G11G 2G16G18
  20540971.664     -558761.227 7   -435398.21222        21.750           1.938
  23650467.547    -1718927.589 6  -1229834.26521        15.000           0.719
  23531649.461    -2744276.223 6  -2138393.00421        12.750           0.563
  23877120.555    -1882838.536 5  -1467145.83921         9.500           0.344
  20817225.328      611102.466 7    450811.99223        27.250           2.656
 91  5 29 17 36 15.0000000  0  5G19G11G 2G16G18
  20538932.523     -569468.179 7   -443741.29322        21.750           1.906
  23642229.125    -1762218.603 6  -1263567.48121        14.750           0.656
  23520511.453    -2802813.774 6  -2184006.60721        13.500           0.531
  23869882.008    -1920905.404 5  -1496808.31821         9.500           0.438
  20820258.734      627028.305 7    463221.71723        27.500           2.688
 91  5 29 17 36 30.0000000  0  5G19G11G 2G16G18
  20536900.578     -580142.325 7   -452058.80922        21.750           1.875
  23634009.398    -1805433.266 6  -1297241.21121        14.750           0.750
  23509376.570    -2861328.951 6  -2229602.79921        12.250           0.531
  23862654.492    -1958875.403 5  -1526395.31021        10.000           0.281
  20823303.195      643037.103 7    475696.08223        27.750           2.688
 91  5 29 17 36 45.0000000  0  5G19G11G 2G16G18
  20534875.086     -590784.133 7   -460351.12422        21.500           1.813
  23625797.289    -1848571.551 6  -1330855.39621        15.250           0.813
  23498248.617    -2919822.121 6  -2275181.82321        13.000           0.594
  23855444.867    -1996748.493 5  -1555906.78821        10.250           0.406
  20826365.109      659128.366 7    488234.70523        27.250           2.656
 91  5 29 17 37  0.0000000  0  5G19G11G 2G16G18
  20532863.531     -601349.425 7   -468583.82222        22.250           1.906
  23617616.461    -1891588.833 6  -1364375.30521        16.000           0.688
  23487131.664    -2978248.831 6  -2320709.05321        13.500           0.594
  23848266.852    -2034480.261 5  -1585308.17921        10.250           0.344
  20829451.117      675346.196 7    500871.94923        27.000           2.656
 91  5 29 17 37 15.0000000  0  5G19G11G 2G16G18
  20530870.539     -611831.531 7   -476751.69422        21.750           1.813
  23609449.758    -1934477.965 6  -1397795.36421        15.000           0.719
  23476023.008    -3036602.056 6  -2366179.05721        12.750           0.781
  23841114.859    -2072063.693 5  -1614593.97021        10.750           0.406
  20832563.531      691697.159 7    513612.93223        27.750           2.594
 91  5 29 17 37 30.0000000  0  5G19G11G 2G16G18
  20528887.898     -622237.117 7   -484859.94922        22.000           1.875
  23601314.805    -1977245.479 6  -1431120.64921        15.500           0.750
  23464932.695    -3094888.401 6  -2411596.92621        13.250           0.625
  23833989.648    -2109505.390 5  -1643769.31721        10.500           0.438
  20835700.305      708174.192 7    526452.16223        27.750           2.656
 91  5 29 17 37 45.0000000  0  5G19G11G 2G16G18
  20526919.500     -632596.083 7   -492931.86922        21.250           1.969
  23593192.914    -2019920.781 6  -1464374.06921        15.000           0.563
  23453851.633    -3153137.507 6  -2456985.77621        13.750           0.719
  23826884.141    -2146834.751 5  -1672857.12321        10.750           0.531
  20838853.359      724747.684 7    539366.53923        27.500           2.625
 91  5 29 17 37 59.9990000  0  5G19G11G 2G16G18
  20524959.636     -642877.195 7   -500943.12122        21.750           1.875
  23585097.886    -2062469.959 6  -1497529.25321        15.250           0.813
  23442778.144    -3211314.764 6  -2502318.65321        13.750           0.688
  23819811.347    -2184018.504 5  -1701831.46121        10.750           0.406
  20842030.698      741446.915 7    552378.90023        27.250           2.688
 91  5 29 17 38 14.9990000  0  5G19G11G 2G16G18
  20523015.472     -653116.447 7   -508921.75622        21.250           1.719
  23577013.886    -2104932.993 6  -1530617.24221        15.750           0.813
  23431714.933    -3269462.320 6  -2547628.39221        14.250           0.688
  23812751.925    -2221096.277 5  -1730723.21421         9.500           0.438
  20845226.612      758239.314 7    565463.85923        27.500           2.750
 91  5 29 17 38 29.9990000  0  5G19G11G 2G16G18
  20521071.183     -663315.478 7   -516869.05522        21.750           1.844
  23568953.175    -2147309.040 6  -1563637.51321        16.250           0.688
  23420658.105    -3327578.496 6  -2592913.65921        14.750           0.781
  23805718.675    -2258067.657 5  -1759532.08621         9.250           0.313
  20848438.800      775121.577 7    578618.83923        27.500           2.625
 91  5 29 17 38 44.9990000  0  5G19G11G 2G16G18
  20519148.019     -673435.738 7   -524754.97022        21.250           1.813
  23560911.362    -2189558.997 6  -1596559.51521        14.750           0.813
  23409610.995    -3385624.393 6  -2638144.18521        15.000           0.656
  23798719.315    -2294893.670 5  -1788227.66621        10.500           0.375
  20851676.245      792132.242 7    591873.87623        27.250           2.688
 91  5 29 17 38 59.9990000  0  5G19G11G 2G16G18
  20517226.120     -683518.025 7   -532611.29922        22.000           1.781
  23552887.370    -2231723.488 6  -1629414.90921        13.750           0.844
  23398569.206    -3443640.762 6  -2683351.70321        14.250           0.719
  23791720.573    -2331615.441 5  -1816842.02721         9.250           0.500
  20854929.292      809230.013 7    605196.78623        27.500           2.813
 91  5 29 17 39 14.9990000  0  5G19G11G 2G16G18
  20515320.097     -693540.555 7   -540421.06022        21.000           1.750
  23544888.011    -2273780.510 6  -1662186.55121        16.250           0.813
  23387538.862    -3501605.822 6  -2728519.22121        14.250           0.719
  23784763.065    -2368210.926 5  -1845357.96321         9.750           0.406
  20858204.183      826436.773 7    618604.61923        27.250           2.781
 91  5 29 17 39 29.9990000  0  5G19G11G 2G16G18
  20513422.956     -703507.615 7   -548187.60122        21.750           1.875
  23536901.081    -2315733.880 6  -1694877.44721        14.250           0.719
  23376518.222    -3559523.630 6  -2773649.92621        15.000           0.813
  23777818.948    -2404683.868 5  -1873778.42321         9.500           0.375
  20861498.472      843748.088 7    632093.91923        27.250           2.750
 91  5 29 17 39 44.9990000  0  5G19G11G 2G16G18
  20511541.784     -713402.745 7   -555898.09122        21.000           1.844
  23528943.933    -2357566.613 6  -1727474.33021        16.250           0.719
  23365503.706    -3617377.343 6  -2818730.69021        14.000           0.906
  23770905.565    -2441017.620 5  -1902090.42821         9.750           0.375
  20864814.800      861180.197 7    645677.35623        27.250           2.750
 91  5 29 17 39 59.9990000  0  5G19G11G 2G16G18
  20509664.284     -723260.249 7   -563579.26322        22.250           1.813
  23520997.245    -2399312.748 6  -1760003.75621        14.500           0.750
  23354501.605    -3675201.127 6  -2863788.12421        14.250           0.844
  23764009.847    -2477246.407 5  -1930320.64321         9.750           0.375
  20868149.386      878698.661 7    659328.07923        27.500           2.750
 91  5 29 17 40 14.9990000  0  5G19G11G 2G16G18
  20507799.565     -733066.157 7   -571220.22922        21.250           1.906
  23513067.112    -2440957.977 6  -1792454.52821        14.750           0.813
  23343509.925    -3732980.665 6  -2908811.07721        15.000           0.781
  23757141.792    -2513356.017 5  -1958457.99521        10.000           0.406
  20871503.620      896317.633 7    673057.12023        27.500           2.688
 91  5 29 17 40 29.9990000  0  5G19G11G 2G16G18
  20505945.034     -742812.308 7   -578814.63722        22.500           1.750
  23505168.542    -2482493.539 6  -1824819.86721        14.750           0.688
  23332523.823    -3790707.773 6  -2953793.20821        14.750           0.813
  23750289.339    -2549338.145 5  -1986495.99321         9.500           0.250
  20874876.323      914045.334 7    686870.88323        27.250           2.688
 91  5 29 17 40 44.9990000  0  5G19G11G 2G16G18
  20504100.206     -752515.257 7   -586375.38222        21.750           1.938
  23497284.339    -2523935.683 6  -1857112.37421        16.000           0.750
  23321543.573    -3848398.574 6  -2998747.02921        14.250           0.844
  23743467.573    -2585208.849 5  -2014447.15621         9.750           0.438
  20878266.573      931865.165 7    700756.43823        26.750           2.563
 91  5 29 17 40 59.9990000  0  5G19G11G 2G16G18
  20502262.714     -762167.060 7   -593896.26622        21.750           1.906
  23489413.542    -2565276.106 6  -1889325.67421        15.000           0.688
  23310577.511    -3906045.131 6  -3043666.36721        14.500           0.875
  23736661.964    -2620960.028 5  -2042305.20921        10.000           0.469
  20881676.401      949784.932 7    714719.87123        26.750           2.563
 91  5 29 17 41 14.9990000  0  5G19G11G 2G16G18
  20500437.198     -771760.636 7   -601371.78522        21.250           1.844
  23481569.105    -2606507.387 6  -1921453.88821        16.000           0.656
  23299616.175    -3963640.262 6  -3088545.62321        14.750           0.938
  23729889.323    -2656584.740 5  -2070064.69821         9.750           0.438
  20885107.253      967811.384 7    728766.42823        27.000           2.594
 91  5 29 17 41 29.9990000  0  5G19G11G 2G16G18
  20498620.300     -781298.520 7   -608803.90522        22.250           1.906
  23473748.019    -2647631.843 6  -1953498.88821        16.000           0.625
  23288663.706    -4021186.234 6  -3133386.60521        14.500           0.938
  23723128.565    -2692085.070 5  -2097727.28721         9.750           0.375
  20888558.276      985941.820 7    742894.01623        27.500           2.625
 91  5 29 17 41 44.9990000  0  5G19G11G 2G16G18
  20496820.097     -790775.704 7   -616188.72722        21.750           1.781
  23465939.237    -2688643.986 6  -1985456.35221        16.250           0.719
  23277727.722    -4078677.948 6  -3178185.27721        15.250           0.719
  23716400.980    -2727455.709 5  -2125288.79921        10.000           0.406
  20892027.862     1004181.413 7    757106.65623        26.500           2.531
 91  5 29 17 41 59.9990000  0  5G19G11G 2G16G18
  20495025.003     -800208.643 7   -623539.07422        22.000           1.844
  23458149.151    -2729559.861 6  -2017338.80521        14.250           0.656
  23266791.917    -4136131.589 6  -3222954.30221        15.500           0.781
  23709689.292    -2762713.148 5  -2152762.12221        10.250           0.406
  20895515.464     1022513.518 7    771391.39523        26.500           2.656
 91  5 29 17 42 14.9990000  0  5G19G11G 2G16G18
  20493242.003     -809577.207 7   -630839.25822        21.500           1.719
  23450388.800    -2770358.982 6  -2049130.28421        15.500           0.625
  23255869.558    -4193526.679 6  -3267677.70421        15.250           0.844
  23703004.534    -2797837.043 5  -2180131.35821        10.500           0.375
  20899027.073     1040957.964 7    785763.66523        27.000           2.750
 91  5 29 17 42 29.9990000  0  5G19G11G 2G16G18
  20491469.112     -818869.952 7   -638080.35722        22.000           1.750
  23442649.800    -2811029.630 6  -2080821.64721        16.000           0.688
  23244959.495    -4250851.956 6  -3312346.68821        15.000           0.844
  23696351.136    -2832815.578 5  -2207387.35921        11.500           0.438
  20902559.073     1059526.491 7    800232.61923        26.250           2.594
 91  5 29 17 42 44.9990000  0  5G19G11G 2G16G18
  20489714.362     -828106.737 7   -645277.86222        21.250           1.813
  23434931.995    -2851591.175 6  -2112428.00621        15.250           0.656
  23234060.136    -4308126.906 6  -3356976.47421        14.750           0.875
  23689718.230    -2867668.533 5  -2234545.49421        11.250           0.438
  20906113.565     1078199.064 7    814782.64223        27.000           2.563
 91  5 29 17 42 59.9990000  0  5G19G11G 2G16G18
  20487966.534     -837284.590 7   -652429.43622        22.250           1.781
  23427231.612    -2892040.326 6  -2143946.76621        14.750           0.656
  23223174.667    -4365348.444 6  -3401564.64021        15.250           0.750
  23683111.589    -2902392.751 5  -2261603.32321        10.750           0.469
  20909686.839     1096978.593 7    829416.00923        26.750           2.688
 91  5 29 17 43 14.9990000  0  5G19G11G 2G16G18
  20486231.230     -846413.720 7   -659543.04522        21.750           1.813
  23419552.925    -2932386.954 6  -2175385.65721        15.500           0.500
  23212292.878    -4422526.488 6  -3446118.91121        15.250           0.750
  23676524.550    -2936998.154 5  -2288568.55121        11.000           0.375
  20913278.011     1115854.586 7    844124.54023        26.500           2.688
 91  5 29 17 43 29.9990000  0  5G19G11G 2G16G18
  20484504.862     -855472.593 7   -666601.90922        22.750           1.875
  23411899.073    -2972609.288 6  -2206727.70721        14.750           0.656
  23201424.612    -4479639.337 6  -3490622.35421        15.500           0.906
  23669963.128    -2971463.161 5  -2315424.40121        10.500           0.438
  20916891.831     1134848.263 7    858924.78123        26.750           2.719
 91  5 29 17 43 44.9990000  0  5G19G11G 2G16G18
  20482793.073     -864480.223 7   -673620.84622        21.500           1.750
  23404268.050    -3012725.913 6  -2237987.35521        15.500           0.781
  23190565.253    -4536705.777 6  -3535089.66221        15.750           0.875
  23663428.355    -3005806.670 5  -2342185.56621        10.000           0.531
  20920524.855     1153940.753 7    873802.01323        27.000           2.688
 91  5 29 17 43 59.9990000  0  5G19G11G 2G16G18
  20481089.315     -873414.118 7   -680582.32422        22.750           1.813
  23396655.995    -3052713.982 6  -2269146.81321        15.250           0.625
  23179718.144    -4593703.262 6  -3579503.22221        15.750           0.938
  23656924.206    -3040006.072 5  -2368834.43721        10.500           0.469
  20924182.597     1173154.463 7    888773.71223        26.750           2.813
 91  5 29 17 44 14.9990000  0  5G19G11G 2G16G18
  20479406.847     -882277.701 7   -687489.01322        21.250           1.781
  23389070.105    -3092576.486 6  -2300208.50021        14.750           0.844
  23168883.847    -4650634.987 6  -3623865.54221        16.250           0.844
  23650439.065    -3074064.282 5  -2395373.28721        10.250           0.500
  20927861.355     1192485.866 7    903837.10823        26.750           2.750
 91  5 29 17 44 29.9990000  0  5G19G11G 2G16G18
  20477730.628     -891079.444 7   -694347.51822        21.000           1.688
  23381511.261    -3132321.646 6  -2331178.67221        16.250           0.688
  23158061.839    -4707509.203 6  -3668183.07621        15.500           0.875
  23643981.534    -3107989.625 5  -2421808.62021        10.750           0.438
  20931562.073     1211926.225 7    918985.41123        26.750           2.688
 91  5 29 17 44 44.9990000  0  5G19G11G 2G16G18
  20476067.503     -899827.063 7   -701163.84522        21.500           1.844
  23373967.472    -3171956.734 6  -2362063.13521        15.750           0.813
  23147250.808    -4764333.458 6  -3712461.65321        15.500           0.813
  23637555.081    -3141789.644 5  -2448146.26521        11.000           0.438
  20935278.792     1231467.976 7    934212.72123        26.250           2.656
 91  5 29 17 44 59.9990000  0  5G19G11G 2G16G18
  20474406.519     -908539.180 7   -707952.51022        22.500           1.813
  23366441.183    -3211500.166 6  -2392876.13121        15.500           0.875
  23136439.183    -4821126.268 6  -3756715.73321        14.000           0.875
  23631136.487    -3175482.995 5  -2474400.82121        10.500           0.344
  20939012.948     1251092.074 7    949504.19823        26.500           2.688
 91  5 29 17 45 14.9990000  0  5G19G11G 2G16G18
  20472766.308     -917172.800 7   -714680.00822        21.500           1.750
  23358939.159    -3250908.437 6  -2423583.83421        14.750           0.656
  23125647.487    -4877844.485 6  -3800911.67421        15.250           0.813
  23624757.487    -3209026.534 5  -2500538.64021        10.750           0.375
  20942772.292     1270841.670 7    964893.45623        27.000           2.656
 91  5 29 17 45 29.9990000  0  5G19G11G 2G16G18
  20471134.284     -925751.104 7   -721364.40422        21.250           1.750
  23351463.675    -3290204.346 6  -2454203.98721        15.500           0.781
  23114863.495    -4934511.126 6  -3845067.44621        15.500           0.875
  23618401.292    -3242443.089 5  -2526577.46521        11.000           0.344
  20946550.456     1290693.368 7    980362.28423        26.500           2.719
 91  5 29 17 45 44.9990000  0  6G19G11G 2G16G18G 6
  20469507.308     -934301.071 7   -728026.71722        21.500           1.750
  23344004.683    -3329414.590 6  -2484757.38521        15.250           0.656
  23104084.792    -4991152.801 6  -3889203.76121        14.750           0.813
  23612057.753    -3275759.427 5  -2552538.27321        10.750           0.219
  20950341.120     1310620.112 7    995889.59123        27.000           2.781
  24287561.425          -0.01813                         6.000
 91  5 29 17 45 59.9990000  0  6G19G11G 2G16G18G 6
  20467887.308     -942801.728 7   -734650.60822        22.000           1.813
  23336562.565    -3368517.907 6  -2515227.45821        15.500           0.750
  23093316.933    -5047748.350 6  -3933304.14121        15.750           0.906
  23605740.644    -3308954.416 5  -2578404.49521        10.750           0.250
  20954151.948     1330642.760 7   1011491.62723        26.750           2.813
  24278381.722      -48246.295 4                         6.750
 91  5 29 17 46 14.9990000  0  6G19G11G 2G16G18G 6
  20466287.042     -951216.256 7   -741207.38522        20.750           1.781
  23329149.308    -3407477.148 6  -2545585.27021        15.750           0.813
  23082562.722    -5104261.061 6  -3977339.94521        15.500           0.813
  23599458.284    -3341991.419 5  -2604147.60721        11.500           0.188
  20957988.800     1350797.817 7   1027196.83423        27.000           2.781
  24269207.183      -96442.104 4        -0.37731         7.000           0.313
 91  5 29 17 46 29.9990000  0  6G19G11G 2G16G18G 6
  20464702.097     -959558.225 7   -747707.62322        21.250           1.844
  23321757.089    -3446305.565 6  -2575841.14121        14.750           0.750
  23071822.425    -5160704.203 6  -4021321.56221        15.500           0.844
  23593196.042    -3374883.417 5  -2629777.73521        11.250           0.188
  20961844.433     1371071.541 7   1042994.51223        27.000           2.781
  24260042.214     -144600.860 5    -37526.64121         7.500           0.313
 91  5 29 17 46 44.9990000  0  6G19G11G 2G16G18G 6
  20463122.597     -967844.037 7   -754164.10522        21.000           1.781
  23314391.784    -3485019.181 6  -2606007.55121        15.750           0.688
  23061087.925    -5217094.007 6  -4065261.60221        14.500           0.875
  23586962.362    -3407646.954 5  -2655307.74921        11.250           0.344
  20965722.230     1391447.622 7   1058871.94723        27.250           2.813
  24250888.503     -192738.986 5    -75036.79421         8.000           0.250
 91  5 29 17 46 59.9990000  0  6G19G11G 2G16G18G 6
  20461556.386     -976072.669 7   -760576.02722        21.750           1.750
  23307046.972    -3523616.638 6  -2636083.45921        15.000           0.688
  23050369.370    -5273429.248 6  -4109159.13821        15.000           0.906
  23580753.753    -3440280.792 5  -2680736.70721        11.750           0.219
  20969618.230     1411927.092 7   1074829.94323        26.750           2.844
  24241734.308     -240855.452 5   -112530.08321         8.000           0.344
 91  5 29 17 47 14.9990000  0  6G19G11G 2G16G18G 6
  20460001.394     -984255.190 7   -766952.01722        21.500           1.813
  23299722.081    -3562108.769 6  -2666077.29421        15.250           0.750
  23039658.253    -5329720.872 6  -4153022.68421        15.000           1.000
  23574561.823    -3472795.486 5  -2706072.83021        11.250           0.281
  20973534.784     1432498.577 7   1090859.63423        27.500           2.781
  24232580.112     -288961.447 4   -150015.24121         7.250           0.188
 91  5 29 17 47 29.9990000  0  6G19G11G 2G16G18G 6
  20458458.901     -992351.210 7   -773260.60222        21.000           1.781
  23292426.253    -3600454.922 6  -2695957.35921        15.000           0.563
  23028965.714    -5385928.441 6  -4196820.71921        16.250           0.844
  23568406.925    -3505150.970 5  -2731284.89921        11.250           0.281
  20977477.253     1453202.324 7   1106992.39223        27.750           2.750
  24223432.378     -337016.593 5   -187460.76021         8.000           0.219
 91  5 29 17 47 44.9990000  0  6G19G11G 2G16G18G 6
  20456932.073    -1000380.771 7   -779517.40322        21.250           1.875
  23285150.097    -3638674.520 6  -2725738.84621        14.500           0.969
  23018276.503    -5442071.664 6  -4240568.63521        15.750           0.781
  23562275.940    -3537366.812 5  -2756388.13421        10.750           0.281
  20981435.550     1474018.189 7   1123212.51223        27.750           2.781
  24214291.300     -385040.807 5   -224882.21121         7.750           0.250
